Terminal Aerodrome Forecast
Issued by NWS Twin Cities, MN

Home | Current Version | Previous Version | Graphics & Text | Print | Product List | Glossary On
Versions: 1 2 3 4 5 6 7 8 9 10 11 12 13 14 15
000
FTUS43 KMPX 282330
TAFEAU
TAF
KEAU 282330Z 0100/0124 19008KT P6SM FEW200
     FM010600 19007KT P6SM OVC030
     FM010800 19007KT 6SM -SN OVC025
     FM011300 21008KT P6SM SCT030 BKN100
     FM011600 25007KT P6SM SCT250=

USA.gov is the U.S. government's official web portal to all federal, state and local government web resources and services.